Aérodrome :
LOGIN :

S'inscrire | Disclaimer

   EN    FR    IT 

 










Légende :    VFR   VFR Marginal   IFR   IFR Intensif   IFR Très Intensif
Visi : 
Plafond : 
>= 8 km
>= 3000ft
5 à 8 km
1000 à 3000 ft
1500m à 5 km
500 à 1000 ft
800 à 1500m
200 à 500 ft
< 800m
< 200 ft
Symboles :   Orages  Brouillard  Fortes neiges  Fortes précipitations  Vent > 20 kt
SIGMETs :   Divers  Orages  Givrage  Turbulence  Onde Orograph.  Cendres Volcan.






- Altitude de l'aérodrome : 2625 ft
- Code IATA : LEU


LESU - Aeròdrom dels Pirineus-Alt Urgell

METARs EXPIRÉS :
  • 031600Z 23012KT 9999 FEW060 13/06 Q1013
  • 031530Z 23010KT 9999 FEW060 14/05 Q1013

TAF TAF LESU
Valide du 03 à 15h jusqu'au 04 à 15h UTC


031400Z 0315/0415 22011KT 9999 FEW050 TX19/0414Z TN02/0406Z
BECMG 0318/0320 VRB03KT
PROB30
TEMPO 0400/0406 4000 BR
BECMG 0410/0412 22010KT



MET'MAP, la Météo Aéronautique d'un coup d'oeil ! - Copyright ORBIFLY Décembre 2007 - Disclaimer

ORBIFLY MET'MAP TEAM :

Programmation & Développement : Alexandra Zaïnal
Sur une idée originale de : Baudouin d'Aumeries
Assistance à la programmation : Marc-Olivier Méhu
Soutien technique & logistique : Manuel Goepfert

Contact : metmap@orbifly.com




SOURCES & CREDITS :

   NOAA